Preview of NWS' New Version of Forecast
This preview is not operational and should not be used for support decisions.

Regional Weather Roundup (RWR)

Issued by Gray - Portland, ME (GYX)

                            
000
ASUS41 KGYX 211410
RWRGYX
WEATHER ROUNDUP FOR MAINE AND NEW HAMPSHIRE
NATIONAL WEATHER SERVICE GRAY ME
1000 AM EDT THU JUN 21 2018

MEZ002-005-006-010-012-015-018-020-021-024-026-027-029-211500-
MAINE
  
CITY           SKY/WX    TMP DP  RH WIND       PRES   REMARKS
PORTLAND       CLOUDY    72  57  59 VRB6      29.77S                  
SANFORD        PTSUNNY   71  57  61 N5        29.78S                  
BAR HARBOR     FAIR      68  49  50 NE8       29.77                   
WISCASSET      PTSUNNY   69  56  62 VRB3      29.78S                  
ROCKLAND       CLOUDY    64  51  62 N9        29.78R                  
FRYEBURG       PTSUNNY   73  56  54 NE8       29.79S                  
LEWISTONAUBURN PTSUNNY   69  53  56 N10       29.79R                  
AUGUSTA        FAIR      71  50  47 N10       29.79S                  
WATERVILLE     FAIR      67  49  52 CALM      29.76S                  
BANGOR         MOSUNNY   66  46  48 N9        29.79S                  
GREENVILLE       N/A     58  44  60 NW12      29.81R                  
MILLINOCKET    FAIR      63  42  46 VRB5      29.82R                  
HOULTON        FAIR      61  41  47 NW9       29.78S                  
PRESQUE ISLE   FAIR      57  37  47 NW15G22   29.81S                  
FRENCHVILLE    FAIR      57  39  51 NW13      29.80S                  
CARIBOU        FAIR      58  39  49 N10G18    29.79S                  
$$

NHZ002-005-008-009-011-012-014-211500-
NEW HAMPSHIRE
  
CITY           SKY/WX    TMP DP  RH WIND       PRES   REMARKS
PORTSMOUTH     PTSUNNY   77  56  46 N12       29.76R                  
ROCHESTER      CLOUDY    70  59  68 NW7       29.78R                  
NASHUA         FAIR      76  58  53 N8        29.79R                  
MANCHESTER     PTSUNNY   77  56  48 NE8       29.77S                  
CONCORD        CLOUDY    73  57  57 N8        29.79S                  
LACONIA        CLOUDY    70  56  61 NW8       29.80S                  
PLYMOUTH       CLOUDY    69  54  60 NW8       29.81R                  
BERLIN         FAIR      68  46  45 VRB7      29.83R                  
WHITEFIELD     FAIR      69  46  43 NW5       29.83S                  
JAFFREY        FAIR      74  56  53 VRB5      29.81S                  
KEENE          FAIR      78  57  48 VRB6      29.80F                  
LEBANON        CLOUDY    68  55  63 NE3       29.82S                  
MT WASHINGTON  MOSUNNY   41  34  75 NW32G41     N/A                   
$$

VTZ005-007-008-211500-
VERMONT
  
CITY           SKY/WX    TMP DP  RH WIND       PRES   REMARKS
ST JOHNSBURY     N/A     67  45  45 MISG      29.82S                  
MONTPELIER     FAIR      63  50  62 VRB3      29.89R                  
BURLINGTON     FAIR      65  45  48 NW12      29.88R                  
$$

MAZ007-012-024-CTZ003-RIZ002-NYZ038-NYZ072-211500-
SOUTHERN NEW ENGLAND AND NY
  
CITY           SKY/WX    TMP DP  RH WIND       PRES   REMARKS
BOSTON         FAIR      80  55  42 NE8       29.77S                  
WORCESTER      FAIR      72  56  57 VRB3      29.81S                  
NANTUCKET      LGT RAIN  64  62  93 CALM      29.79F                  
PROVIDENCE     FAIR      70  61  73 SE9       29.79S                  
HARTFORD       FAIR      76  58  53 N7        29.79S                  
ALBANY         FAIR      72  54  53 NE7       29.83S                  
NEW YORK CITY  PTSUNNY   73  65  75 NE5       29.77S                  
$$

ANZ081-ANZ082-ANZ150-NHZ014-MEZ023>029-211500-
COASTAL MARINE OBSERVATIONS
  
STATION/POSITION TIME  TEMP    WIND        PRES    WAVE
                       AIR SEA DIR/SP/G            HT/PER
                 (UTC) (F)     (DEG/KT/KT) (MB)    (FT/S)
MOUNT DESERT ROC 1400   57      10/ 11/ 11 1008.3R
MATINICUS ROCK   1400   61      30/  9/ 11 1007.9R
ISLE OF SHOALS   1400   65      50/  7/  7 1007.9R
JEFFREYS LEDGE   1336      57                N/A     2/ 8
CASHES LEDGE BUO 1350   64 60              1007.6    2/ 5
$$

.............KEY..............
   WCI - WIND CHILL
   TC  - TEMPERATURE IN CELSIUS
   VSB - VISIBILITY IN MILES
   HX  - HEAT INDEX
   FAIR- INDICATES FEW OR NO CLOUDS BELOW 12,000 FT, WITH NO 
         SIGNIFICANT WEATHER AND/OR OBSTRUCTIONS TO VISIBILITY.